Regional Weather Roundup
Issued by NWS Wakefield, VA

Home | Current Version | Previous Version | Graphics & Text | Print | Product List | Glossary On
Versions: 1 2 3 4 5 6 7 8 9 10 11 12 13 14 15 16 17 18 19 20 21 22 23 24 25 26 27
000
ASUS41 KAKQ 180114
RWRAKQ

REGIONAL WEATHER ROUNDUP
NATIONAL WEATHER SERVICE WAKEFIELD VA
800 PM EST FRI NOV 17 2017

Note: "fair" indicates few or no clouds below 12,000 feet with no
significant weather and/or obstructions to visibility. * = Denotes
station may not report precipitation (e.g., rain,snow,etc.),
thunder or fog.

VAZ042-051-052>054-056-180200-
NORTHERN VIRGINIA

CITY           SKY/WX    TMP DP  RH WIND       PRES   REMARKS
WASH NATIONAL  PTCLDY    43  35  73 CALM      30.14F
DULLES         PTCLDY    35  30  82 S3        30.12F
FORT BELVOIR   PTCLDY    36  29  77 CALM      30.14S
QUANTICO       CLEAR     39  34  82 NW7       30.15F
FREDERICKSBRG* CLEAR     37  32  84 CALM      30.14S
STAFFORD*      CLEAR     32  31  98 CALM      30.18S
WARRENTON      NOT AVBL
CULPEPER*      CLEAR     33  27  80 CALM      30.13F
MANASSAS*      CLOUDY    33  29  85 CALM      30.13F
LEESBURG*      PTCLDY    37  32  81 CALM      30.12F
WINCHESTER     CLOUDY    34  28  80 CALM      30.09F
FRONT ROYAL*   CLOUDY    34  28  80 CALM      30.09F
LURAY*         CLOUDY    34  30  86 CALM      30.09F
$$

VAZ048-049-060>072-079>083-180200-
CENTRAL AND SOUTH CENTRAL VIRGINIA

CITY           SKY/WX    TMP DP  RH WIND       PRES   REMARKS
RICHMOND       PTCLDY    38  31  76 CALM      30.14F
CHESTERFIELD*  NOT AVBL
PETERSBURG*    CLEAR    N/A N/A N/A CALM      30.16F
HANOVER        CLEAR     36  32  85 CALM      30.16F
TAPPAHANNOCK*    N/A    N/A N/A N/A MISG        N/A
QUINTON*       FAIR      36  34  94 CALM      30.15F
CHARLOTTSVILLE CLEAR     44  27  51 S3        30.11F
GORDONSVILLE*  CLEAR     35  31  88 CALM      30.12F
ORANGE*        CLEAR     34  28  80 CALM      30.13S
LOUISA*          N/A     31  28  89 SE5         N/A
BUMPASS*       FAIR      40  28  63 S6        30.13F
FARMVILLE*     CLEAR     37  33  85 CALM      30.12F
CREWE*         FAIR      34  34 100 CALM      30.15S
FORT PICKETT*  NOT AVBL
CHASE CITY*    FAIR      37  31  82 CALM      30.14S
CLARKSVILLE*   FAIR      36  34  93 CALM      30.15R
SOUTH HILL*    CLEAR     34  34  99 CALM      30.20S
LAWRENCEVILLE* FAIR      37  35  93 CALM      30.15S
EMPORIA*       CLEAR     34  32  93 CALM      30.17F
$$

VAZ088>098-180200-
SOUTHEAST VIRGINIA

CITY           SKY/WX    TMP DP  RH WIND       PRES   REMARKS
NORFOLK        CLEAR     43  35  73 CALM      30.15F
VIRGINIA BEACH PTCLDY    38  32  79 CALM      30.14F
NORFOLK NAVAL  CLEAR     38  33  82 CALM      30.17S
WEST POINT*    CLEAR     33  31  93 CALM      30.16F
SALUDA*        FAIR      36  34  95 CALM      30.14F
NEWPORT NEWS   CLEAR     35  32  88 CALM      30.16F
LANGLEY AFB    CLEAR     38  35  87 CALM      30.15F
FORT EUSTIS    CLEAR     38  34  84 CALM      30.13F
WILLIAMSBURG*  PTCLDY    39  36  87 CALM      30.16F
HR EXEC AP*    NOT AVBL
FRANKLIN*      CLEAR     33  32  96 CALM      30.17S
US460-WAKEFLD  CLEAR     34  32  92 CALM      30.16S
$$

VAZ020-022-025-037-045-180200-
WEST CENTRAL AND SOUTHWEST VIRGINIA

CITY           SKY/WX    TMP DP  RH WIND       PRES   REMARKS
STAUNTON*      CLOUDY    30  26  85 CALM      30.11S
WAYNESBORO*    CLEAR     39  24  53 SW5       30.09F
HOT SPRINGS VA CLOUDY    41   7  24 S10       30.08S
LYNCHBURG      PTCLDY    37  26  64 CALM      30.12F
DANVILLE       CLEAR     36  31  82 CALM      30.14S
SOUTH BOSTON*  FAIR      36  30  80 CALM      30.15R
MARTINSVILLE   CLEAR     34  28  80 CALM      30.15S
ROANOKE        CLEAR     44  27  51 CALM      30.14R
BLACKSBURG     CLOUDY    40  28  64 CALM      30.14S
DUBLIN*        CLOUDY    40  29  62 CALM      30.12R
MARION*        CLEAR     45  20  38 NE6       30.11S
HILLSVILLE*    CLEAR     44  23  42 S6        30.10R
RICHLANDS*     FAIR      50  -8   9 SE5       30.06R
WISE*          CLEAR     52  21  30 S9        30.04F
ABINGDON*      CLEAR     46  30  52 E5        30.06F
$$

MDZ021>025-VAZ099-100-180200-
SOUTHERN MARYLAND AND THE DELMARVA PENINSULA

CITY           SKY/WX    TMP DP  RH WIND       PRES   REMARKS
PATUXENT RIVER PTCLDY    36  32  85 W3        30.14F
BAY BRIDGE APT CLEAR     39  32  75 CALM      30.14F
LEONARDTOWN    CLEAR     36  32  87 CALM      30.16F
DOVER          CLEAR     37  26  66 SW3       30.13S
GEORGETOWN     CLEAR     37  30  75 CALM      30.15S
EASTON         CLEAR     37  30  75 CALM      30.17F
CAMBRIDGE      CLEAR     36  32  87 CALM      30.14F FOG
SALISBURY      CLEAR     35  32  88 CALM      30.14F
OCEAN CITY     CLEAR     35  31  85 CALM      30.15S
WALLOPS ISLAND CLEAR     37  32  82 CALM      30.15F
ACCOMACK*      CLEAR     36  34  93 CALM      30.14F
$$

NCZ012>017-030>032-180200-
NORTH CENTRAL AND EASTERN NORTH CAROLINA

CITY           SKY/WX    TMP DP  RH WIND       PRES   REMARKS
ROANOKE RAPIDS FAIR      36  36 100 CALM      30.16F
RALEIGH        PTCLDY    41  34  76 CALM      30.15S
ELIZABETH CITY CLEAR     40  38  93 CALM      30.16F
AHOSKIE*       CLEAR     35  35 100 CALM      30.17F
EDENTON*       CLEAR     39  37  91 CALM      30.17F
CURRITUCK*     CLEAR     39  37  93 CALM      30.17F
KILL DEVIL HLS CLEAR     46  33  61 CALM      30.16S
MANTEO         CLEAR     41  38  88 CALM      30.18R
CAPE HATTERAS  CLEAR     42  38  85 NE3       30.17F
TARBORO*       NOT AVBL
GOLDSBORO      CLEAR     41  36  81 CALM      30.15F
WASHINGTON     CLEAR     40  38  92 CALM      30.17F
GREENVILLE     CLEAR     37  37 100 CALM      30.18F
NEW BERN       PTCLDY    38  38 100 VRB3      30.18F
WILMINGTON     CLEAR     42  39  89 CALM      30.16F
$$

VAZ048-180200-
ELSEWHERE

CITY           SKY/WX    TMP DP  RH WIND       PRES   REMARKS
HARRISBURG PA  CLEAR     36  28  73 CALM      30.11F
BALTIMORE      PTCLDY    36  29  75 CALM      30.13F
ANNAPOLIS      CLEAR     42  37  82 CALM      30.14F
ANDREWS AFB    CLEAR     36  28  74 CALM      30.12F
PHILADELPHIA   PTCLDY    44  24  45 W9        30.12F
HENDERSON NC   CLEAR     39  29  66 CALM      30.15S
GREENSBORO     PTCLDY    46  31  55 CALM      30.12F
ROCKY MOUNT    CLEAR     38  37  97 CALM      30.17S
$$

VAZ100-180200-
MARINE

STATION/POSITION TIME  TEMP    WIND        PRES    WAVE   SWELL
                       AIR SEA DIR/SP/G            HT/PER HT/PER
                 (UTC) (F)     (DEG/KT/KT) (MB)    (FT/S) (FT/S)
15NM E FENWICK I 2350   50 59  290/ 16/ 19 1020.6    3/12   2/12
THOMAS POINT MD  0100   49 53  290/  2/  3   N/A
CAPE HENRY BUOY  0030      61                N/A     3/13   2/13
CAPE CHARLES BUO 0051      58                N/A     2/13   2/13
64NM E OF VA BCH 0050   52 61  350/ 14/ 16 1020.9F   4/ 7   3/ 7
44100 DUCK FRF   0045      62                N/A     4/13   2/13
44056 DUCK FRF   0100      60                N/A     4/13   2/13
DIAMOND SHLS NC  0050   54 65   10/ 12/ 14 1021.6F   4/11   3/11
CAPE LOOKOUT NC  0000   52      10/  5/  5 1022.3R
$$




USA.gov is the U.S. government's official web portal to all federal, state and local government web resources and services.